Regional Weather Roundup
Issued by NWS

Home | Current Version | Previous Version | Graphics & Text | Print | Product List | Glossary On
Versions: 1 2 3 4 5 6 7 8 9 10 11 12 13 14 15 16 17 18 19 20 21 22 23 24 25 26 27 28 29 30 31 32 33 34 35 36 37 38 39 40 41 42 43 44 45 46 47 48 49 50
253
ASUS45 KSLC 012210
RWRUT

UTAH REGIONAL WEATHER ROUNDUP
NATIONAL WEATHER SERVICE SALT LAKE CITY UT
400 PM MDT SAT OCT 01 2016

UTZ001>011-023>025-012300-

NORTHERN UTAH

CITY           SKY/WX    TMP DP  RH WIND       PRES   REMARKS
BRIGHAM CITY     N/A     75  43  31 S7        29.99F
HILL AFB       PTSUNNY   75  49  38 SW10      30.01F
LOGAN          PTSUNNY   75  45  34 S15       30.00R
OGDEN          LGT RAIN  71  52  50 N3        29.99F
PROVO AIRPORT  SUNNY     79  44  28 SE9       30.01F
SALT LAKE CITY PTSUNNY   78  43  28 S17G23    29.97S
VERNAL         CLOUDY    71  50  47 S8        30.11S
WENDOVER       PTSUNNY   77  37  24 SE5       29.95F
HEBER CITY     MOSUNNY   72  41  33 SW12G21   30.07S
WEST JORDAN    MOSUNNY   79  45  29 SE15      30.00F

$$

UTZ012>022-026-027-012300-

SOUTHERN/CENTRAL UTAH

CITY           SKY/WX    TMP DP  RH WIND       PRES   REMARKS
BLANDING       MOSUNNY   71  45  39 SW3       30.25S
BRYCE CANYON   LGT RAIN  56  44  64 S22G30    30.26R
CEDAR CITY     SUNNY     75  42  30 SW18G29   30.11F
DELTA          MOSUNNY   77  36  22 SW9G16    30.02S
MILFORD        MOSUNNY   80  36  20 S26G35    30.04F
MOAB/CYNLANDS  PTSUNNY   76  48  37 NW9       30.05F
PRICE          CLOUDY    60  52  74 E9        30.16R
ST GEORGE      PTCLDY    88  46  23 SW13      29.97F

$$

REGIONAL REPORTS     COLORADO/ARIZONA

CITY           SKY/WX    TMP DP  RH WIND       PRES   REMARKS
CRAIG, CO      CLOUDY    67  43  41 SW29G39   30.16R
GRAND JUNCTION MOSUNNY   75  48  38 W6        30.09F
RIFLE          SUNNY     76  41  28 W15       30.11F
MONTROSE       SUNNY     75  43  31 N9        30.14S
CORTEZ         MOSUNNY   72  44  36 VRB7      30.17F
PAGE, AZ       MOSUNNY   81  47  30 NE6       30.06F
GRAND CANYON   MOSUNNY   68  44  42 S13G18    30.23F
KINGMAN        MOSUNNY   85  32  15 SW9G26    30.03F
FLAGSTAFF      MOSUNNY   66  44  45 S16       30.26S

$$

REGIONAL REPORTS    NEVADA/IDAHO/WYOMING

CITY           SKY/WX    TMP DP  RH WIND       PRES   REMARKS
LAS VEGAS, NV  MOSUNNY   91  39  16 SW16G23   29.90F
ELY            PTSUNNY   73  30  20 SW22G28   30.07F
ELKO           SUNNY     74  23  15 SW13G24   30.02F
POCATELLO, ID  TSTM      60  50  69 W22       30.03R
BURLEY         MOSUNNY   65  43  44 W7        30.01F
EVANSTON, WY   CLOUDY    69  34  27 SW23G29   30.14S
ROCK SPRINGS   CLOUDY    61  39  44 SW17      30.16R

$$




USA.gov is the U.S. government's official web portal to all federal, state and local government web resources and services.